Hurghada, Egypt

3:11 PM EET on August 23, 2017 (GMT +0200)
Hurghada

Weather History for HEGN - May, 2013

Change the Weather History Date:

Friday, May 31, 2013

  Actual Average Record
Temperature  
Mean Temperature 93 °F -  
Max Temperature 108 °F 93 °F 108 °F (2013)
Min Temperature 78 °F 77 °F 72 °F (2015)
Cooling Degree Days 28    
Growing Degree Days 43 (Base 50)    
Moisture  
Dew Point 53 °F    
Average Humidity 27    
Maximum Humidity 42    
Minimum Humidity 9    
Precipitation  
Precipitation 0.00 in - - ()
Sea Level Pressure  
Sea Level Pressure 29.73 in    
Wind  
Wind Speed 8 mph ()    
Max Wind Speed 14 mph    
Max Gust Speed -    
Visibility 4.6 miles    
Events      
Averages and records for this station are not official NWS values.
T = Trace of Precipitation, MM = Missing Value Source: Averaged Metar Reports

Daily Weather History Graph

Daily Weather History Graph

Search for Another Location

Airport or City:

Trip Planner

Search our weather history database for the weather conditions in past years. The results will help you decide how hot, cold, wet, or windy it might be!

Date:

Astronomy

May. 31, 2013 Rise Set
Actual Time 4:51 AM EET 6:34 PM EET
Civil Twilight 4:24 AM EET 7:00 PM EET
Nautical Twilight 3:53 AM EET 7:32 PM EET
Astronomical Twilight 3:20 AM EET 8:05 PM EET
Moon 11:59 PM EET (5/31) 11:18 AM EET (5/31)
Length of Visible Light 14h 35m
Length of Day
13h 43m
Waning Gibbous, 54% of the Moon is Illuminated
May 31
Waning Gibbous
May 31
Last Quarter
Jun 8
New
Jun 16
First Quarter
Jun 23
Full

Hourly Weather History & Observations

Time (EET) Temp. Heat Index Dew Point Humidity Pressure Visibility Wind Dir Wind Speed Gust Speed Precip Events Conditions
12:00 AM 89.6 °F - 33.8 °F 14% 29.71 in - WNW 13.8 mph - N/A   Clear
1:00 AM 86.0 °F - 39.2 °F 19% 29.71 in - NW 11.5 mph - N/A   Clear
2:00 AM 86 °F - 54 °F 23% 29.73 in 6 mi NW 12.7 mph - -  
2:00 AM 86.0 °F 84.2 °F 53.6 °F 33% 29.71 in - NW 12.7 mph - N/A   Clear
3:00 AM 82.4 °F - 46.4 °F 28% 29.71 in - NW 11.5 mph - N/A   Clear
4:00 AM 80.6 °F - 44.6 °F 28% 29.74 in - North 8.1 mph - N/A   Clear
5:00 AM 78.8 °F - 51.8 °F 39% 29.74 in - NNW 5.8 mph - N/A   Clear
6:00 AM 80.6 °F 80.5 °F 55.4 °F 42% 29.77 in - NW 5.8 mph - N/A   Clear
7:00 AM 87.8 °F 87.6 °F 60.8 °F 40% 29.77 in - North 8.1 mph - N/A   Clear
8:00 AM 90 °F - 63 °F 30% 29.78 in 6 mi North 11.5 mph - -  
8:00 AM 89.6 °F 90.1 °F 62.6 °F 40% 29.77 in - North 11.5 mph - N/A   Clear
9:00 AM 95.0 °F 95.2 °F 60.8 °F 32% 29.77 in - North 9.2 mph - N/A   Clear
10:00 AM 96.8 °F 96.2 °F 59.0 °F 28% 29.77 in 5.0 mi NNE 13.8 mph - N/A   Unknown
11:00 AM 100.4 °F 98.4 °F 53.6 °F 21% 29.77 in 5.0 mi NNE 12.7 mph - N/A   Unknown
12:00 PM 100.4 °F 99.7 °F 57.2 °F 24% 29.77 in 5.0 mi North 9.2 mph - N/A   Unknown
1:00 PM 105.8 °F 104.9 °F 55.4 °F 19% 29.74 in 3.7 mi NNE 8.1 mph - N/A   Unknown
2:00 PM 105 °F - 50 °F 9% 29.73 in 4 mi NNE 10.4 mph - -   Haze
2:00 PM 104.0 °F - 50.0 °F 16% 29.71 in 3.7 mi NNE 10.4 mph - N/A   Unknown
3:00 PM 107.6 °F - 50.0 °F 15% 29.71 in 3.7 mi East 3.5 mph - N/A   Unknown
4:00 PM 104.0 °F - 51.8 °F 17% 29.71 in 3.7 mi ESE 4.6 mph - N/A   Unknown
5:00 PM 100.4 °F - 51.8 °F 20% 29.71 in 3.7 mi SE 4.6 mph - N/A   Unknown
6:00 PM 95.0 °F 94.4 °F 59.0 °F 30% 29.68 in 3.7 mi ESE 2.3 mph - N/A   Unknown
7:00 PM 89.6 °F 87.7 °F 55.4 °F 31% 29.71 in 5.0 mi Calm Calm - N/A   Unknown
8:00 PM 87 °F - 55 °F 23% 29.72 in 6 mi Calm Calm - -  
8:00 PM 87.8 °F 86.1 °F 55.4 °F 33% 29.71 in - Calm Calm - N/A   Clear
9:00 PM 84.2 °F 82.8 °F 53.6 °F 35% 29.71 in - Calm Calm - N/A   Clear
10:00 PM 86.0 °F - 51.8 °F 31% 29.71 in - SW 3.5 mph - N/A   Clear
11:00 PM 84.2 °F - 46.4 °F 27% 29.71 in - WSW 3.5 mph - N/A   Clear